Flag for Germany Weather past 2 weeks in Rheinberg, North Rhine-Westphalia, Germany

Now
58 °F

Overcast.


Feels Like: 57 °F
Forecast: 44 / 51 °F
Wind: 5 mph from Southwest

Location: Duesseldorf

Current Time: Apr 26, 2015 at 11:21:48 AM

Latest Report: Apr 26, 2015 at 10:00 AM


Visibility: 14 mi

Pressure: 29.75 "Hg

Humidity: 83%

Dew point: 52 °F

Location of RheinbergLocation

Historic Weather in Rheinberg — Graph

°F

Rheinberg temperature yesterday

Maximum temperature yesterday: 62 °F (at 1:00 AM)
Minimum temperature yesterday: 52 °F (at 10:00 AM)
Average temperature yesterday: 56 °F

Past Weeks' High & Low Weather Summary

 TemperatureHumidityPressure
High74 °F (Apr 15, 4:00 PM)97% (Apr 12, 2:00 AM)30.49 "Hg (Apr 12, 2:00 AM)
Low34 °F (Apr 19, 6:00 AM)29% (Apr 21, 4:00 PM)29.73 "Hg (Apr 26, 6:00 AM)
Average52 °F65%30.18 "Hg
* Reported Apr 11 10:00 AM — Apr 26 10:00 AM, Rheinberg, Weather by CustomWeather, © 2015

Note: Actual official high and low records may vary slightly from our data, if they occured in-between our weather recording intervals... More about our weather records

Advertising

Rheinberg weather history for previous 24 hours

 ConditionsComfort  
Time TempWeatherWind HumidityBarometerVisibility
10:00 AM
Sun, Apr 26
58 °FOvercast.5 mph83%29.75 "Hg14 mi
9:00 AM56 °FOvercast.5 mph90%29.75 "Hg9 mi
8:00 AM54 °FOvercast.3 mph91%29.75 "Hg12 mi
7:00 AM54 °FOvercast.3 mph91%29.74 "Hg11 mi
6:00 AM53 °FOvercast.3 mph93%29.73 "Hg12 mi
4:00 AM54 °FOvercast.5 mph93%29.75 "Hg16 mi
3:00 AM53 °FSprinkles. Overcast.3 mph95%29.76 "Hg16 mi
2:00 AM54 °FSprinkles. Low clouds.7 mph89%29.78 "Hg7 mi
1:00 AM53 °FPassing clouds.3 mph92%29.78 "Hg25 mi
12:00 AM52 °FClear.3 mph92%29.78 "Hg22 mi
10:00 PM
Sat, Apr 25
56 °FPassing clouds.3 mph84%29.78 "Hg22 mi
9:00 PM56 °FPassing clouds.2 mph82%29.77 "Hg16 mi
8:00 PM57 °FOvercast.2 mph86%29.75 "Hg19 mi
7:00 PM58 °FOvercast.5 mph79%29.76 "Hg19 mi
6:00 PM57 °FRain showers. Overcast.5 mph82%29.76 "Hg7 mi
4:00 PM58 °FOvercast.3 mph81%29.76 "Hg7 mi
3:00 PM59 °FLight rain. Overcast.5 mph78%29.77 "Hg6 mi
2:00 PM57 °FLight rain. Overcast.3 mph83%29.77 "Hg6 mi
1:00 PM57 °FLight rain. Overcast.3 mph82%29.78 "Hg6 mi
12:00 PM56 °FLight rain. Overcast.3 mph81%29.79 "Hg6 mi
Weather by CustomWeather, © 2015

See weather overviewHow to use our weather pages